Location: Izdebno
(52.6670°N, 16.2170°E)
Time: 09:46:23
(UTC+01:00)

Vanguard 2 - Pass Details

Date: 25 September 2023
Orbit: 552 x 2923 km, 32.9° (Epoch: 07 December)

Event Time Altitude Azimuth Distance (km) Brightness Sun altitude
Rises 20:12:11 0° 219° (SW) 6,226 12.5 -13.5°
Reaches altitude 10° 20:18:23 10° 205° (SSW) 4,796 11.7 -14.4°
Maximum altitude 20:26:00 18° 168° (SSE) 3,514 10.6 -15.5°
Enters shadow 20:30:00 14° 142° (SE) 3,415 10.3 -16.1°
